When you browse on this site, cookies collect data to enhance your experience and personalize the content and advertising you see.
Visit our Privacy Policy to learn more. By continuing to use the site, you agree to this use of cookies and data.
  • In Hungary
  • List of Countries
  • For 7 days
  • Water Temperature
  • Weather Map
  • News
  • Weather Widgets
  • user-avatar
    Login

    Hourly Weather Damenka

    Today, 25 August, Sunday

    Time Temperature Precipitation Wind Pressure Humidity
    00:00 +16°C° 0 mm 2 mps 746 mmHg 71%
    01:00 +15°C° 0 mm 2 mps 746 mmHg 73%
    02:00 +15°C° 0 mm 2 mps 746 mmHg 76%
    03:00 +15°C° 0 mm 2 mps 746 mmHg 81%
    04:00 +15°C° 0 mm 2 mps 746 mmHg 85%
    05:00 +14°C° 0 mm 2 mps 746 mmHg 90%
    06:00 +16°C° 0 mm 3 mps 746 mmHg 85%
    07:00 +17°C° 0 mm 3 mps 747 mmHg 80%
    08:00 +19°C° 0 mm 3 mps 747 mmHg 75%
    09:00 +20°C° 0 mm 4 mps 747 mmHg 69%
    10:00 +21°C° 0 mm 4 mps 747 mmHg 62%
    11:00 +22°C° 0 mm 4 mps 747 mmHg 56%
    12:00 +22°C° 0 mm 4 mps 747 mmHg 54%
    13:00 +22°C° 0 mm 4 mps 747 mmHg 52%
    14:00 +23°C° 0 mm 4 mps 747 mmHg 50%
    15:00 +22°C° 0 mm 4 mps 747 mmHg 53%
    16:00 +21°C° 0 mm 4 mps 747 mmHg 57%
    17:00 +21°C° 0 mm 3 mps 747 mmHg 60%
    18:00 +19°C° 0 mm 3 mps 747 mmHg 66%
    19:00 +18°C° 0 mm 3 mps 748 mmHg 71%
    20:00 +16°C° 0 mm 3 mps 748 mmHg 76%
    21:00 +16°C° 0 mm 2 mps 748 mmHg 79%
    22:00 +15°C° 0 mm 2 mps 748 mmHg 81%
    23:00 +14°C° 0 mm 2 mps 749 mmHg 83%

    Tomorrow, 26 August, Monday

    Time Temperature Precipitation Wind Pressure Humidity
    00:00 +14°C° 0 mm 2 mps 749 mmHg 85%
    01:00 +14°C° 0 mm 2 mps 749 mmHg 87%
    02:00 +13°C° 0 mm 2 mps 749 mmHg 89%
    03:00 +13°C° 0 mm 2 mps 749 mmHg 91%
    04:00 +13°C° 0 mm 2 mps 749 mmHg 92%
    05:00 +12°C° 0 mm 2 mps 749 mmHg 93%
    06:00 +14°C° 0 mm 2 mps 749 mmHg 86%
    07:00 +16°C° 0 mm 2 mps 749 mmHg 78%
    08:00 +17°C° 0 mm 2 mps 750 mmHg 70%
    09:00 +18°C° 0 mm 2 mps 750 mmHg 64%
    10:00 +20°C° 0 mm 2 mps 749 mmHg 57%
    11:00 +21°C° 0 mm 2 mps 749 mmHg 50%
    12:00 +21°C° 0 mm 2 mps 749 mmHg 47%
    13:00 +23°C° 0 mm 1 mps 749 mmHg 45%
    14:00 +24°C° 0 mm 1 mps 749 mmHg 42%
    15:00 +21°C° 0 mm 0 mps 748 mmHg 45%
    16:00 +21°C° 0 mm 0 mps 748 mmHg 48%
    17:00 +21°C° 0 mm 0 mps 747 mmHg 50%
    18:00 +19°C° 0 mm 0 mps 747 mmHg 53%
    19:00 +17°C° 0 mm 0 mps 747 mmHg 56%
    20:00 +16°C° 0 mm 0 mps 747 mmHg 58%
    21:00 +16°C° 0 mm 1 mps 747 mmHg 60%
    22:00 +16°C° 0 mm 1 mps 747 mmHg 61%
    23:00 +15°C° 0 mm 1 mps 746 mmHg 63%

    Day after tomorrow, 27 August, Tuesday

    Time Temperature Precipitation Wind Pressure Humidity
    00:00 +15°C° 0 mm 2 mps 746 mmHg 65%
    01:00 +15°C° 0 mm 2 mps 746 mmHg 68%
    02:00 +14°C° 0 mm 2 mps 746 mmHg 71%
    03:00 +14°C° 0 mm 2 mps 745 mmHg 73%
    04:00 +14°C° 0 mm 2 mps 745 mmHg 76%
    05:00 +14°C° 0 mm 2 mps 745 mmHg 78%
    06:00 +14°C° 0 mm 3 mps 744 mmHg 75%
    07:00 +16°C° 0 mm 3 mps 744 mmHg 72%
    08:00 +18°C° 0 mm 4 mps 744 mmHg 69%
    09:00 +19°C° 0 mm 4 mps 744 mmHg 66%
    10:00 +21°C° 0 mm 5 mps 743 mmHg 62%
    11:00 +22°C° 0 mm 5 mps 743 mmHg 58%
    12:00 +22°C° 0.2 mm 5 mps 743 mmHg 60%
    13:00 +22°C° 0.2 mm 6 mps 742 mmHg 61%
    14:00 +22°C° 0.2 mm 6 mps 742 mmHg 63%
    15:00 +22°C° 0.1 mm 6 mps 742 mmHg 65%
    16:00 +21°C° 0.1 mm 5 mps 742 mmHg 67%
    17:00 +20°C° 0.1 mm 5 mps 741 mmHg 70%
    18:00 +19°C° 0 mm 5 mps 741 mmHg 72%
    19:00 +17°C° 0 mm 5 mps 742 mmHg 74%
    20:00 +17°C° 0 mm 4 mps 742 mmHg 76%
    21:00 +15°C° 0 mm 4 mps 742 mmHg 76%
    22:00 +14°C° 0 mm 4 mps 742 mmHg 77%
    23:00 +14°C° 0 mm 4 mps 742 mmHg 77%

    28 August, Wednesday

    Time Temperature Precipitation Wind Pressure Humidity
    00:00 +13°C° 0 mm 3 mps 743 mmHg 79%
    01:00 +12°C° 0 mm 3 mps 743 mmHg 82%
    02:00 +11°C° 0 mm 3 mps 743 mmHg 85%
    03:00 +11°C° 0 mm 3 mps 743 mmHg 85%
    04:00 +10°C° 0 mm 4 mps 743 mmHg 86%
    05:00 +8°C° 0 mm 4 mps 744 mmHg 86%
    06:00 +10°C° 0 mm 4 mps 744 mmHg 77%
    07:00 +10°C° 0 mm 5 mps 744 mmHg 68%
    08:00 +12°C° 0 mm 5 mps 745 mmHg 59%
    09:00 +13°C° 0 mm 5 mps 745 mmHg 57%
    10:00 +14°C° 0 mm 5 mps 745 mmHg 54%
    11:00 +15°C° 0 mm 5 mps 745 mmHg 52%
    12:00 +15°C° 0 mm 5 mps 745 mmHg 50%
    13:00 +16°C° 0 mm 5 mps 745 mmHg 48%
    14:00 +16°C° 0 mm 6 mps 744 mmHg 46%
    15:00 +16°C° 0 mm 5 mps 744 mmHg 48%
    16:00 +15°C° 0 mm 5 mps 745 mmHg 49%
    17:00 +14°C° 0 mm 5 mps 745 mmHg 51%
    18:00 +13°C° 0 mm 4 mps 745 mmHg 55%
    19:00 +11°C° 0 mm 4 mps 745 mmHg 58%
    20:00 +10°C° 0 mm 3 mps 745 mmHg 62%
    21:00 +9°C° 0 mm 3 mps 746 mmHg 65%
    22:00 +8°C° 0 mm 3 mps 746 mmHg 69%
    23:00 +8°C° 0 mm 3 mps 746 mmHg 72%

    29 August, Thursday

    Time Temperature Precipitation Wind Pressure Humidity
    00:00 +7°C° 0 mm 3 mps 746 mmHg 74%
    01:00 +6°C° 0 mm 2 mps 746 mmHg 77%
    02:00 +6°C° 0 mm 2 mps 746 mmHg 79%
    03:00 +5°C° 0 mm 2 mps 747 mmHg 80%
    04:00 +5°C° 0 mm 2 mps 747 mmHg 81%
    05:00 +5°C° 0 mm 2 mps 747 mmHg 82%
    06:00 +7°C° 0 mm 3 mps 747 mmHg 76%
    07:00 +7°C° 0 mm 4 mps 747 mmHg 71%
    08:00 +10°C° 0 mm 4 mps 748 mmHg 65%
    09:00 +11°C° 0 mm 4 mps 748 mmHg 61%
    10:00 +12°C° 0 mm 4 mps 748 mmHg 57%
    11:00 +14°C° 0 mm 4 mps 748 mmHg 53%
    12:00 +14°C° 0 mm 4 mps 747 mmHg 52%
    13:00 +15°C° 0 mm 4 mps 747 mmHg 51%
    14:00 +15°C° 0 mm 4 mps 747 mmHg 51%
    15:00 +15°C° 0 mm 4 mps 747 mmHg 53%
    16:00 +14°C° 0 mm 4 mps 747 mmHg 55%
    17:00 +14°C° 0 mm 4 mps 747 mmHg 57%
    18:00 +12°C° 0 mm 4 mps 747 mmHg 62%
    19:00 +11°C° 0 mm 3 mps 747 mmHg 67%
    20:00 +9°C° 0 mm 3 mps 747 mmHg 72%
    21:00 +9°C° 0 mm 2 mps 747 mmHg 74%
    22:00 +8°C° 0 mm 2 mps 747 mmHg 75%
    23:00 +7°C° 0 mm 2 mps 747 mmHg 76%

    30 August, Friday

    Time Temperature Precipitation Wind Pressure Humidity
    00:00 +7°C° 0 mm 2 mps 747 mmHg 78%
    01:00 +7°C° 0 mm 2 mps 747 mmHg 79%
    02:00 +6°C° 0 mm 2 mps 747 mmHg 81%
    03:00 +6°C° 0 mm 2 mps 747 mmHg 82%
    04:00 +6°C° 0 mm 2 mps 747 mmHg 83%
    05:00 +5°C° 0 mm 2 mps 747 mmHg 84%
    06:00 +7°C° 0 mm 2 mps 747 mmHg 76%
    07:00 +9°C° 0 mm 2 mps 747 mmHg 68%
    08:00 +11°C° 0 mm 3 mps 747 mmHg 60%
    09:00 +13°C° 0 mm 3 mps 747 mmHg 55%
    10:00 +14°C° 0 mm 3 mps 747 mmHg 49%
    11:00 +16°C° 0 mm 3 mps 747 mmHg 44%
    12:00 +17°C° 0 mm 3 mps 747 mmHg 42%
    13:00 +18°C° 0 mm 3 mps 746 mmHg 40%
    14:00 +18°C° 0 mm 3 mps 746 mmHg 38%
    15:00 +18°C° 0 mm 3 mps 746 mmHg 43%
    16:00 +17°C° 0 mm 3 mps 745 mmHg 47%
    17:00 +17°C° 0 mm 3 mps 745 mmHg 52%
    18:00 +14°C° 0 mm 3 mps 745 mmHg 57%
    19:00 +13°C° 0 mm 3 mps 745 mmHg 62%
    20:00 +12°C° 0 mm 3 mps 745 mmHg 67%
    21:00 +12°C° 0 mm 3 mps 745 mmHg 70%
    22:00 +12°C° 0 mm 3 mps 744 mmHg 73%
    23:00 +12°C° 0 mm 3 mps 744 mmHg 76%
    Show more